EXPRESS 103

Last updated on Sat Jul 05 2025 00:02:47 GMT+0000 (Coordinated Universal Time)

1 45985U 20053A 25185.58449466 -.00000267 00000+0 00000+0 0 9992 2 45985 0.0169 342.1965 0000353 13.0186 234.5387 1.00272322 18166
UTC large
Height (km)
Speed (km/s)
/
Latitude / Longitude
Inclination (degrees)
Orbital Period (minutes)
Azimuth
Elevation
Range (km)
Doppler Factor

Next 0 passes for location: London (51.5072 / 0.1276)

Sorry there are no passes over London.